sat.trackr.live / text

‹ back to catalog

STARLINK-32595

NORAD 62037 · 2024-216F

PAYLOAD ACTIVE UNKNOWN

§ Identity

Operator
Country
US
Launch date
2024-11-21
Launch site
AFETR
Launch vehicle
Mass (kg)
RCS (m²)

Purposes: comms

External: N2YO · Heavens-Above · Gunter

§ Orbital elements

Epoch: 2026-09-21T04:51:56.778336Z

Period
94.27 min
Inclination
43.0010°
Eccentricity
0.0001425
Mean motion
15.27588090 rev/d
Perigee alt
482.0 km
Apogee alt
484.0 km
Semi-major
6,861.2 km
B*
5.0241e-4
RAAN
239.3670°
Arg perigee
271.0149°
Mean anomaly
89.0540°
Rev number
10,370

§ Raw data

STARLINK-325951 62037U 24216F   26264.20274049  .00013592  00000+0  50241-3 0  99952 62037  43.0010 239.3670 0001425 271.0149  89.0540 15.27588090103706

JSON: /api/v1/satellites/62037 · /tle

For live sub-satellite position, see the globe view (requires WebGL).

§ Visibility from observer

Set your observer location to see the next 7 days of passes ≥ 10°. The values pass through the URL so the page stays shareable.

No JS? Fill the form by hand. The geolocation button needs JavaScript.